Tracking 28052 objects as of 25-Sep-2023
HD Live streaming from Space Station
objects crossing your sky now

STARLINK-3716

Track STARLINK-3716 now!
10-day predictions
STARLINK-3716 is classified as:


NORAD ID: 52092
Int'l Code: 2022-029E
Perigee: 546.0 km
Apogee: 547.8 km
Inclination: 53.2 °
Period: 95.4 minutes
Semi major axis: 6917 km
RCS: Unknown
Launch date: March 19, 2022
Source: United States (US)
Launch site: AIR FORCE EASTERN TEST RANGE (AFETR)
Your satellite tracking list
Your tracking list is empty




NASA's NSSDC Master Catalog

Two Line Element Set (TLE):
1 52092U 22029E   23267.85999736  .00003714  00000-0  25134-3 0  9992
2 52092  53.2167 155.1419 0001327 107.1023 253.0114 15.08837011 85268
Source of the keplerian elements: AFSPC